Weather History for Troy, AL

Change the Weather History Date:

Thursday, September 4, 2014

  Actual Average Record
Temperature  
Mean Temperature 82 °F 78 °F  
Max Temperature 91 °F 90 °F 93 °F (2002)
Min Temperature 72 °F 68 °F 61 °F (2010)
Degree Days  
Heating Degree Days 0 0  
Month to date heating degree days 0 0  
Since 1 July heating degree days 0 0  
Cooling Degree Days 17 14  
Month to date cooling degree days 71 56  
Year to date cooling degree days 1783 1690  
Growing Degree Days 32 (Base 50)    
Moisture  
Dew Point 72 °F    
Average Humidity 75    
Maximum Humidity 94    
Minimum Humidity 56    
Precipitation  
Precipitation 1.49 in 0.13 in 1.85 in (2012)
Month to date precipitation 2.18 0.56  
Year to date precipitation 40.18 38.51  
Sea Level Pressure  
Sea Level Pressure 30.08 in    
Wind  
Wind Speed 4 mph (ESE)    
Max Wind Speed 14 mph    
Max Gust Speed 17 mph    
Visibility 8 miles    
Events Fog , Rain , Thunderstorm    
T = Trace of Precipitation, MM = Missing Value Source: NWS Daily Summary

Daily Weather History Graph

Daily Weather History Graph

Search for Another Location

Airport:

Trip Planner

Search our weather history database for the weather conditions in past years. The results will help you decide how hot, cold, wet, or windy it might be!

Date:

Astronomy

Sep. 04, 2014 Rise Set
Actual Time 6:21 AM CDT 7:04 PM CDT
Civil Twilight 5:56 AM CDT 7:28 PM CDT
Nautical Twilight 5:27 AM CDT 7:58 PM CDT
Astronomical Twilight 4:57 AM CDT 8:27 PM CDT
Moon 3:30 PM CDT (9/4) 1:22 AM CDT (9/4)
Length of Visible Light 13h 32m
Length of Day
12h 42m
Waxing Gibbous, 74% of the Moon is Illuminated
Sep 4
Waxing Gibbous
Sep 8
Full
Sep 15
Last Quarter
Sep 24
New
Oct 1
First Quarter

Hourly Weather History & Observations

Time (CDT) Temp. Heat Index Dew Point Humidity Pressure Visibility Wind Dir Wind Speed Gust Speed Precip Events Conditions
12:53 AM 75.0 °F - 73.0 °F 94% 30.05 in 10.0 mi ENE 3.5 mph - N/A   Clear
1:53 AM 75.0 °F - 72.0 °F 90% 30.04 in 10.0 mi ENE 3.5 mph - N/A   Clear
2:53 AM 75.0 °F - 72.0 °F 90% 30.04 in 10.0 mi NNE 3.5 mph - N/A   Clear
3:35 AM 75.0 °F - 72.0 °F 90% 30.05 in 10.0 mi Calm Calm - N/A   Scattered Clouds
3:42 AM 75.0 °F - 72.0 °F 90% 30.05 in 10.0 mi Calm Calm - N/A   Mostly Cloudy
3:53 AM 73.9 °F - 72.0 °F 93% 30.04 in 9.0 mi Calm Calm - N/A   Mostly Cloudy
4:06 AM 73.9 °F - 72.0 °F 93% 30.06 in 8.0 mi SE 3.5 mph - N/A   Mostly Cloudy
4:15 AM 73.9 °F - 72.0 °F 93% 30.06 in 8.0 mi Calm Calm - N/A   Scattered Clouds
4:53 AM 73.9 °F - 72.0 °F 93% 30.05 in 9.0 mi Calm Calm - N/A   Mostly Cloudy
5:00 AM 73.9 °F - 72.0 °F 93% 30.06 in 8.0 mi Calm Calm - N/A   Scattered Clouds
5:53 AM 73.9 °F - 72.0 °F 93% 30.06 in 10.0 mi NE 3.5 mph - N/A   Clear
6:50 AM 73.4 °F - 71.6 °F 94% 30.10 in 8.0 mi Calm Calm - N/A   Scattered Clouds
6:53 AM 73.9 °F - 72.0 °F 93% 30.09 in 9.0 mi Calm Calm - N/A   Mostly Cloudy
7:00 AM 75.0 °F - 72.0 °F 90% 30.10 in 10.0 mi Calm Calm - N/A   Mostly Cloudy
7:34 AM 75.9 °F - 72.0 °F 87% 30.11 in 10.0 mi SSE 3.5 mph - N/A   Mostly Cloudy
7:41 AM 75.9 °F - 73.0 °F 91% 30.11 in 10.0 mi SSE 3.5 mph - N/A   Scattered Clouds
7:53 AM 75.9 °F - 72.0 °F 87% 30.10 in 10.0 mi SSE 4.6 mph - N/A   Partly Cloudy
8:53 AM 80.1 °F 83.8 °F 72.0 °F 76% 30.10 in 10.0 mi Calm Calm - N/A   Partly Cloudy
9:53 AM 84.0 °F 89.6 °F 72.0 °F 67% 30.12 in 10.0 mi South 4.6 mph - N/A   Clear
10:53 AM 86.0 °F 93.0 °F 73.0 °F 65% 30.11 in 10.0 mi SSE 4.6 mph - N/A   Partly Cloudy
11:53 AM 88.0 °F 94.7 °F 72.0 °F 59% 30.10 in 10.0 mi Variable 5.8 mph - N/A   Clear
12:53 PM 90.0 °F 96.4 °F 71.1 °F 54% 30.07 in 10.0 mi Variable 6.9 mph - N/A   Scattered Clouds
1:53 PM 87.1 °F 94.5 °F 73.0 °F 63% 30.05 in 10.0 mi NNW 8.1 mph - N/A   Scattered Clouds
2:53 PM 86.0 °F 92.2 °F 72.0 °F 63% 30.04 in 10.0 mi WNW 6.9 mph - N/A   Mostly Cloudy
3:23 PM 82.9 °F 88.0 °F 72.0 °F 69% 30.05 in 10.0 mi West 5.8 mph - N/A Thunderstorm Thunderstorm
3:53 PM 75.9 °F - 72.0 °F 87% 30.05 in 1.0 mi ESE 8.1 mph - 0.12 in Rain , Thunderstorm Heavy Thunderstorms and Rain
3:57 PM 75.0 °F - 72.0 °F 90% 30.08 in 0.5 mi Variable 4.6 mph - 0.10 in Fog , Rain , Thunderstorm Heavy Thunderstorms and Rain
4:11 PM 73.9 °F - 72.0 °F 93% 30.11 in 0.8 mi ENE 6.9 mph - 0.53 in Rain , Thunderstorm Heavy Thunderstorms and Rain
4:20 PM 73.9 °F - 72.0 °F 93% 30.11 in 0.5 mi SE 3.5 mph - 0.73 in Fog , Rain , Thunderstorm Heavy Thunderstorms and Rain
4:37 PM 73.9 °F - 72.0 °F 93% 30.11 in 1.0 mi WSW 6.9 mph - 0.96 in Rain , Thunderstorm Heavy Thunderstorms and Rain
4:43 PM 73.9 °F - 72.0 °F 93% 30.11 in 1.5 mi SW 6.9 mph - 0.99 in Rain , Thunderstorm Heavy Thunderstorms and Rain
4:48 PM 73.4 °F - 71.6 °F 94% 30.11 in 2.0 mi SW 6.9 mph - 1.00 in Rain , Thunderstorm Thunderstorms and Rain
4:53 PM 73.9 °F - 72.0 °F 93% 30.10 in 3.0 mi SW 6.9 mph - 1.01 in Rain , Thunderstorm Thunderstorms and Rain
5:17 PM 73.9 °F - 72.0 °F 93% 30.10 in 4.0 mi West 4.6 mph - 0.04 in Rain , Thunderstorm Light Rain
5:53 PM 73.0 °F - 71.1 °F 93% 30.09 in 6.0 mi North 6.9 mph - 0.10 in Rain , Thunderstorm Thunderstorms and Rain
6:12 PM 73.0 °F - 70.0 °F 90% 30.10 in 3.0 mi North 3.5 mph - 0.05 in Rain , Thunderstorm Heavy Rain
6:53 PM 73.0 °F - 71.1 °F 93% 30.09 in 6.0 mi Calm Calm - 0.19 in Rain Rain
7:53 PM 73.0 °F - 71.1 °F 93% 30.10 in 10.0 mi ENE 3.5 mph - 0.04 in Rain Light Rain
8:53 PM 73.0 °F - 71.1 °F 93% 30.11 in 10.0 mi ENE 3.5 mph - 0.02 in Rain Light Rain
9:15 PM 73.0 °F - 71.1 °F 93% 30.14 in 10.0 mi Calm Calm - 0.01 in Rain Light Rain
9:53 PM 73.0 °F - 71.1 °F 93% 30.12 in 10.0 mi Calm Calm - 0.01 in   Clear
10:53 PM 73.9 °F - 71.1 °F 91% 30.10 in 10.0 mi North 4.6 mph - N/A   Clear
11:53 PM 73.0 °F - 71.1 °F 93% 30.11 in 9.0 mi Calm Calm - N/A   Clear